Regional Weather Roundup
Issued by NWS

Home | Current Version | Previous Version | Text Only | Print | Product List | Glossary Off
Versions: 1 2 3 4 5 6 7 8 9 10 11 12 13 14 15 16 17 18 19 20 21 22 23 24 25 26 27 28 29 30 31 32 33 34 35 36 37 38 39 40 41 42 43 44 45 46 47 48 49 50

129
ASUS43 KIND 261509
RWRIN

WEATHER ROUNDUP FOR INDIANA
NATIONAL WEATHER SERVICE INDIANAPOLIS IN
1100 AM EDT FRI MAY 26 2017

NOTE: "FAIR" INDICATES FEW OR NO CLOUDS BELOW 12,000 FEET WITH NO
SIGNIFICANT WEATHER AND/OR OBSTRUCTIONS TO VISIBILITY.

* - STATION DOES NOT REPORT WEATHER SUCH AS PRECIPITATION OR FOG.

+ - STATION NOT QUALITY CONTROLLED BY THE NATIONAL WEATHER SERVICE.
    USE DATA WITH CAUTION...ESPECIALLY DEWPOINT AND RELATIVE
    HUMIDITY OBSERVATIONS.

INZ001>003-010>013-019-020-261600-
NORTHWEST INDIANA

CITY           SKY/WX    TMP DP  RH WIND       PRES   REMARKS
GARY /AIRPORT/ MOSUNNY   68  54  60 VRB3      29.89R
KNOX *+        SUNNY     64  45  48 SW5       29.91R
LA PORTE +     SUNNY     64  54  69 CALM      29.91R
MICHIGAN CITY+ SUNNY     63  54  72 CALM      29.91R
MONTICELLO +   MOSUNNY   64  54  69 CALM      29.92R
RENSSELAER +   MOSUNNY   66  55  68 S6        29.91S
VALPARAISO     SUNNY     68  56  65 VRB5      29.90R

$$

LMZ046-743>745-261600-
SOUTHERN LAKE MICHIGAN

STATION/POSITION TIME  TEMP    WIND        PRES    WAVE
                       AIR SEA DIR/SP/G            HT
                 (UTC) (F)     (DEG/KT/KT) (MB)    (FT)
BURNS HARBOR     1440   58      50/  5/  6 1012.9R
MICHIGAN CITY    1440   57     270/  2/  2   N/A
5NW MICH CITY    1500   54 53   CALM  /  2   N/A     1

$$

INZ004-005-014>016-021>024-261600-
NORTH CENTRAL INDIANA

CITY           SKY/WX    TMP DP  RH WIND       PRES   REMARKS
ELKHART        SUNNY     63  54  72 W3        29.89R
GOSHEN         SUNNY     64  52  64 W5        29.89R
LOGANSPORT +   CLOUDY    63  55  77 SW3       29.93R
PERU/GRISSOM   MOSUNNY   64  56  75 W6        29.91R
ROCHESTER +    SUNNY     68  55  64 SW5       29.92R
SOUTH BEND     SUNNY     65  54  67 W6        29.90R
WARSAW +       SUNNY     64  54  68 W6        29.90R

$$

INZ006>009-017-018-025>027-261600-
NORTHEAST INDIANA

CITY           SKY/WX    TMP DP  RH WIND       PRES   REMARKS
ANGOLA *+      PTSUNNY   61  52  72 NW3       29.87F
AUBURN +       MOSUNNY   61  54  77 W3        29.90S
FORT WAYNE     MOSUNNY   64  54  69 W6        29.90S
HUNTINGTON +   SUNNY     65  55  69 W7        29.91R
KENDALLVILLE + SUNNY     61  54  78 W7        29.89S

$$

INZ028-029-035-036-043>045-051>053-261600-
WEST CENTRAL INDIANA

CITY           SKY/WX    TMP DP  RH WIND       PRES   REMARKS
CRAWFORDSVL +  MOSUNNY   68  58  71 S5        29.91F
GREENCASTLE +  SUNNY     70  55  60 S6        29.92F
LAFAYETTE      CLOUDY    67  60  78 SW3       29.90S
TERRE HAUTE    SUNNY     72  58  61 S7        29.91S

$$

INZ030>032-037>040-046>048-054>057-064-065-261600-
CENTRAL INDIANA

CITY           SKY/WX    TMP DP  RH WIND       PRES   REMARKS
ANDERSON       MOSUNNY   68  59  73 W5        29.93R
CP ATTERBURY + SUNNY     70  55  60 SW5       29.93S
COLUMBUS       SUNNY     66  57  72 S6        29.93R
FRANKFORT +    PTSUNNY   69  60  71 SW5       29.93S
GREENWOOD *+   MOSUNNY   69  58  67 SW6       29.93S
INDIANAPOLIS   PTSUNNY   70  59  68 SW6       29.92R
-EAGLE CREEK   SUNNY     69  56  62 VRB3      29.92R
KOKOMO +       SUNNY     65  55  70 SW3       29.93R
MARION +       CLOUDY    63  54  72 W8        29.93R
MT COMFORT *+  MOSUNNY   66  57  72 CALM      29.93R
SHELBYVILLE    SUNNY     69  58  67 VRB6      29.92R
ZIONSVILLE +   MOSUNNY   67  58  72 CALM      29.93S

$$

INZ033-034-041-042-049-050-058-059-261600-
EAST CENTRAL INDIANA

CITY           SKY/WX    TMP DP  RH WIND       PRES   REMARKS
MUNCIE         MOSUNNY   66  55  67 W8        29.92R
RICHMOND +     CLOUDY    63  54  72 W12       29.93S HAZE

$$

INZ060-061-067>069-081>083-085>088-261600-
SOUTHWEST INDIANA

CITY           SKY/WX    TMP DP  RH WIND       PRES   REMARKS
EVANSVILLE     CLOUDY    75  59  57 SE7       29.92F
HUNTINGBURG *+ MOSUNNY   72  61  68 S7        29.95R
WASHINGTON +   SUNNY     71  57  61 S8        29.92F

$$

INZ062-063-066-070>080-084-089>092-261600-
SOUTH CENTRAL AND SOUTHEAST INDIANA

CITY           SKY/WX    TMP DP  RH WIND       PRES   REMARKS
BEDFORD +      SUNNY     72  55  56 SW6       29.94R
BLOOMINGTON    SUNNY     71  57  61 SW9       29.94R
MADISON *+     SUNNY     70  55  60 S3        29.97R
NORTH VERNON + SUNNY     66  55  68 SW3       29.94S
SEYMOUR +      SUNNY     72  59  64 SW9       29.94R

$$





USA.gov is the U.S. government's official web portal to all federal, state and local government web resources and services.